DW2213 Weather Reports


time (UTC)temp
F
wind
direction
speed
knots
gust
knots
rain 1hr
in
rain 24hr
in
rain mn
in
humidity
%
barometer
mb
20260902011305 76 100 0.0 0.0 0.00 0.00 0.00 89 1014.5
20260902010804 76 100 0.0 0.0 0.00 0.00 0.00 89 1014.5
20260902010304 76 99 0.0 0.0 0.00 0.00 0.00 89 1014.5
20260902004804 76 144 0.0 0.0 0.00 0.00 0.00 89 1014.4
20260902004304 76 144 0.0 0.0 0.00 0.00 0.00 89 1014.5
20260902003805 76 144 0.0 0.0 0.00 0.00 0.00 89 1014.6
20260902003304 76 144 0.0 0.0 0.00 0.00 0.00 89 1014.6
20260902002804 76 144 0.0 0.0 0.00 0.00 0.00 89 1014.5
20260902002306 76 144 0.0 0.9 0.00 0.00 0.00 90 1014.5
20260902001804 76 144 0.0 0.9 0.00 0.00 0.00 90 1014.6
20260902001304 76 143 0.0 0.0 0.00 0.00 0.00 90 1014.6
20260902000804 76 143 0.0 0.0 0.00 0.00 0.00 89 1014.7
20260901235804 76 143 0.0 0.0 0.00 0.00 0.00 89 1014.6
20260901235307 76 143 0.0 0.0 0.00 0.00 0.00 89 1014.6
20260901234804 76 143 0.0 0.0 0.00 0.00 0.00 89 1014.5
20260901234304 76 143 0.0 0.0 0.00 0.00 0.00 89 1014.5
20260901233804 76 143 0.0 0.0 0.00 0.00 0.00 89 1014.6
20260901233304 76 143 0.0 0.0 0.00 0.00 0.00 89 1014.6
20260901232804 76 143 0.0 0.0 0.00 0.00 0.00 89 1014.5
20260901232306 76 143 0.0 0.0 0.00 0.00 0.00 89 1014.5
20260901231804 77 143 0.0 0.0 0.00 0.00 0.00 88 1014.5
20260901231304 77 142 0.0 0.0 0.00 0.00 0.00 88 1014.5
20260901230804 77 142 0.0 0.0 0.00 0.00 0.00 88 1014.4
20260901230304 77 142 0.0 0.0 0.00 0.00 0.00 88 1014.4
20260901225804 78 142 0.0 0.0 0.00 0.00 0.00 88 1014.4
20260901225306 78 142 0.0 0.0 0.00 0.00 0.00 88 1014.5
20260901224804 78 142 0.0 0.0 0.00 0.00 0.00 88 1014.5
20260901224304 78 142 0.0 0.0 0.00 0.00 0.00 88 1014.4
20260901223804 78 142 0.0 0.0 0.00 0.00 0.00 88 1014.5
20260901223304 78 142 0.0 0.0 0.00 0.00 0.00 88 1014.4
20260901222306 78 142 0.0 0.0 0.00 0.00 0.00 87 1014.4
20260901221304 78 142 0.0 0.0 0.00 0.00 0.00 87 1014.4
20260901220816 78 142 0.0 0.0 0.00 0.00 0.00 87 1014.3
20260901220305 78 142 0.0 0.0 0.00 0.00 0.00 86 1014.4
20260901215804 79 142 0.0 0.0 0.00 0.00 0.00 86 1014.3
20260901215306 79 142 0.0 0.0 0.00 0.00 0.00 86 1014.3
20260901214304 79 142 0.0 0.0 0.00 0.00 0.00 85 1014.3
20260901213804 79 142 0.0 0.0 0.00 0.00 0.00 85 1014.3
20260901213304 79 142 0.0 0.0 0.00 0.00 0.00 85 1014.3
20260901212804 79 142 0.0 0.0 0.00 0.00 0.00 85 1014.4
20260901212306 79 142 0.0 0.0 0.00 0.00 0.00 85 1014.4
20260901211304 79 142 0.0 0.0 0.00 0.00 0.00 85 1014.4
20260901210804 80 142 0.0 0.0 0.00 0.00 0.00 85 1014.4
20260901210304 80 142 0.0 0.0 0.00 0.00 0.00 84 1014.3
20260901205804 80 142 0.0 0.0 0.00 0.00 0.00 84 1014.2
20260901205306 80 142 0.0 0.0 0.00 0.00 0.00 84 1014.2
20260901204804 80 142 0.0 0.0 0.00 0.00 0.00 84 1014.2
20260901204304 80 142 0.0 0.0 0.00 0.00 0.00 84 1014.2
20260901203804 80 142 0.0 0.0 0.00 0.00 0.00 84 1014.2
20260901203304 80 142 0.0 0.0 0.00 0.00 0.00 84 1014.0
20260901202804 80 142 0.0 0.0 0.00 0.00 0.00 84 1014.0
20260901201804 80 142 0.0 0.0 0.00 0.00 0.00 83 1014.0
20260901201304 80 142 0.0 0.0 0.00 0.00 0.00 83 1014.0
20260901200804 80 142 0.0 0.0 0.00 0.00 0.00 83 1013.9
20260901200304 80 142 0.0 0.0 0.00 0.00 0.00 83 1013.8
20260901195804 80 142 0.0 0.0 0.00 0.00 0.00 83 1013.7
20260901195306 80 142 0.0 0.0 0.00 0.00 0.00 82 1013.7
20260901194804 80 142 0.0 0.0 0.00 0.00 0.00 82 1013.5
20260901194304 80 142 0.0 0.0 0.00 0.00 0.00 82 1013.3
20260901193804 80 142 0.0 0.0 0.00 0.00 0.00 82 1013.5
20260901193304 80 142 0.0 0.0 0.00 0.00 0.00 82 1013.5
20260901192804 80 142 0.0 0.0 0.00 0.00 0.00 82 1013.4
20260901192306 80 142 0.0 0.0 0.00 0.00 0.00 82 1013.3
20260901191803 80 142 0.0 0.0 0.00 0.00 0.00 81 1013.2
20260901191304 81 142 0.0 0.0 0.00 0.00 0.00 81 1013.1
20260901190304 81 142 0.0 0.0 0.00 0.00 0.00 80 1012.9
20260901185804 81 142 0.0 0.0 0.00 0.00 0.00 80 1012.8
20260901185306 81 142 0.0 0.0 0.00 0.00 0.00 80 1012.8
20260901184804 81 142 0.0 0.0 0.00 0.00 0.00 80 1012.8
20260901184304 81 142 0.0 0.0 0.00 0.00 0.00 80 1012.7
20260901183803 81 142 0.0 0.0 0.00 0.00 0.00 80 1012.6
20260901183304 81 142 0.0 0.0 0.00 0.00 0.00 80 1012.6
20260901182305 82 142 0.0 4.3 0.00 0.00 0.00 79 1012.5
20260901181803 82 150 0.0 1.7 0.00 0.00 0.00 79 1012.5
20260901181304 82 150 0.0 0.9 0.00 0.00 0.00 79 1012.7
20260901180803 82 150 0.0 1.7 0.00 0.00 0.00 78 1012.7
20260901180304 82 148 0.9 4.3 0.00 0.00 0.00 78 1012.7
20260901175804 82 138 0.9 1.7 0.00 0.00 0.00 78 1012.6
20260901175305 82 137 0.9 2.6 0.00 0.00 0.00 77 1012.7
20260901174804 82 140 0.0 1.7 0.00 0.00 0.00 77 1012.7
20260901174303 83 137 0.0 1.7 0.00 0.00 0.00 76 1012.8
20260901173804 83 136 0.9 4.3 0.00 0.00 0.00 76 1012.8
20260901172803 83 132 0.9 4.3 0.00 0.00 0.00 75 1012.8
20260901171803 84 143 0.9 2.6 0.00 0.00 0.00 74 1012.7
20260901171304 84 142 0.9 2.6 0.00 0.00 0.00 73 1012.7
20260901170804 84 140 0.9 4.3 0.00 0.00 0.00 73 1012.7
20260901170305 84 139 0.0 2.6 0.00 0.00 0.00 72 1012.6
20260901165306 85 129 0.0 1.7 0.00 0.00 0.00 71 1012.7
20260901164805 85 154 0.9 2.6 0.00 0.00 0.00 71 1012.6
20260901164305 85 125 0.9 4.3 0.00 0.00 0.00 71 1012.7
20260901163305 85 138 0.0 4.3 0.00 0.00 0.00 71 1012.6
20260901162306 85 126 0.0 1.7 0.00 0.00 0.00 72 1012.7
20260901161805 84 129 0.0 1.7 0.00 0.00 0.00 73 1012.7
20260901161305 84 127 0.0 2.6 0.00 0.00 0.00 74 1012.7
20260901160805 84 123 0.9 2.6 0.00 0.00 0.00 73 1012.7
20260901160306 83 122 0.9 2.6 0.00 0.00 0.00 75 1012.9
20260901155805 83 140 0.0 4.3 0.00 0.00 0.00 77 1012.9
20260901155306 83 139 0.9 2.6 0.00 0.00 0.00 78 1013.0
20260901154805 82 132 0.0 0.0 0.00 0.00 0.00 79 1012.9
20260901154304 82 133 0.9 4.3 0.00 0.00 0.00 79 1013.1
20260901153805 82 137 0.9 4.3 0.00 0.00 0.00 79 1012.1
20260901153305 82 145 0.9 7.0 0.00 0.00 0.00 79 1012.7
20260901152805 82 139 0.9 2.6 0.00 0.00 0.00 79 1012.4
20260901152306 82 145 0.0 0.0 0.00 0.00 0.00 78 1013.2
20260901151805 82 144 0.9 2.6 0.00 0.00 0.00 78 1013.8
20260901151305 82 120 0.0 0.0 0.00 0.00 0.00 76 1013.7
20260901150805 82 120 0.0 0.9 0.00 0.00 0.00 76 1013.2
20260901150305 83 158 0.9 1.7 0.00 0.00 0.00 75 1013.2
20260901145805 84 134 0.9 5.2 0.00 0.00 0.00 73 1013.1
20260901145306 84 150 1.7 5.2 0.00 0.00 0.00 71 1013.5
20260901144805 84 154 1.7 5.2 0.00 0.00 0.00 70 1013.9
20260901144304 84 155 0.9 5.2 0.00 0.00 0.00 70 1013.8
20260901143804 84 156 1.7 6.1 0.00 0.00 0.00 70 1013.5
20260901143305 84 151 0.9 2.6 0.00 0.00 0.00 71 1013.6
20260901142805 84 161 0.0 4.3 0.00 0.00 0.00 71 1013.5
20260901141305 85 124 0.9 5.2 0.00 0.00 0.00 65 1013.4
20260901140805 85 126 0.0 0.0 0.00 0.00 0.00 63 1014.0
20260901135804 86 127 0.0 2.6 0.00 0.00 0.00 60 1013.9
20260901135305 86 137 0.9 1.7 0.00 0.00 0.00 61 1014.0
20260901134805 86 156 0.0 0.0 0.00 0.00 0.00 61 1014.5
20260901134305 86 157 0.0 0.0 0.00 0.00 0.00 63 1014.5
20260901133805 86 157 0.0 0.0 0.00 0.00 0.00 62 1014.7
20260901132805 86 157 0.9 2.6 0.00 0.00 0.00 64 1014.8
20260901132307 86 153 0.0 2.6 0.00 0.00 0.00 63 1014.8
20260901131805 86 152 0.9 4.3 0.00 0.00 0.00 64 1014.9
20260901131305 86 145 0.0 2.6 0.00 0.00 0.00 67 1014.9
20260901130805 85 142 0.9 4.3 0.00 0.00 0.00 65 1014.9
20260901130304 85 136 0.0 2.6 0.00 0.00 0.00 67 1014.8
20260901125308 85 136 0.9 2.6 0.00 0.00 0.00 68 1014.3
20260901124804 86 115 0.0 2.6 0.00 0.00 0.00 65 1014.3
20260901124304 85 78 0.0 2.6 0.00 0.00 0.00 67 1014.4
20260901123805 85 138 0.0 1.7 0.00 0.00 0.00 66 1014.4
20260901123305 85 138 0.9 2.6 0.00 0.00 0.00 67 1014.5
20260901122805 86 135 0.9 4.3 0.00 0.00 0.00 66 1014.4
20260901122306 86 147 0.9 2.6 0.00 0.00 0.00 67 1014.2
20260901121305 86 134 0.9 4.3 0.00 0.00 0.00 65 1014.5
20260901120805 86 150 0.9 4.3 0.00 0.00 0.00 64 1014.5
20260901120305 86 121 0.9 4.3 0.00 0.00 0.00 64 1014.6
20260901115805 86 145 0.9 5.2 0.00 0.00 0.00 64 1014.8
20260901115306 87 147 1.7 5.2 0.00 0.00 0.00 64 1014.9
20260901114805 87 149 0.9 4.3 0.00 0.00 0.00 64 1014.9
20260901114305 86 124 0.9 4.3 0.00 0.00 0.00 66 1014.7
20260901113805 86 129 1.7 4.3 0.00 0.00 0.00 66 1014.9
20260901112804 86 118 0.0 1.7 0.00 0.00 0.00 66 1015.2
20260901112306 86 118 0.0 2.6 0.00 0.00 0.00 66 1015.1
20260901111804 85 107 0.0 1.7 0.00 0.00 0.00 66 1015.1
20260901110804 86 144 0.9 1.7 0.00 0.00 0.00 65 1015.3
20260901110304 86 100 0.0 2.6 0.00 0.00 0.00 65 1015.4
20260901105305 87 117 0.9 4.3 0.00 0.00 0.00 63 1015.1
20260901104804 88 113 0.9 6.1 0.00 0.00 0.00 64 1014.9
20260901104305 87 143 0.9 5.2 0.00 0.00 0.00 66 1015.1
20260901103804 87 136 0.9 2.6 0.00 0.00 0.00 65 1015.0
20260901103305 87 150 1.7 7.8 0.00 0.00 0.00 65 1015.1
20260901102805 87 144 0.9 7.8 0.00 0.00 0.00 66 1015.2
20260901102306 86 139 2.6 5.2 0.00 0.00 0.00 66 1015.4
20260901101805 86 139 0.0 0.0 0.00 0.00 0.00 66 1015.4
20260901101305 86 153 0.0 4.3 0.00 0.00 0.00 67 1015.4
20260901100804 86 133 0.9 5.2 0.00 0.00 0.00 67 1015.5
20260901100305 87 127 1.7 6.1 0.00 0.00 0.00 65 1015.5
20260901095306 87 101 0.0 5.2 0.00 0.00 0.00 65 1015.4
20260901094805 87 157 1.7 6.1 0.00 0.00 0.00 67 1015.4
20260901093804 87 138 0.9 4.3 0.00 0.00 0.00 67 1015.3
20260901092805 87 135 2.6 6.1 0.00 0.00 0.00 68 1015.4
20260901092305 86 142 0.9 7.0 0.00 0.00 0.00 70 1015.3
20260901091805 86 153 0.9 4.3 0.00 0.00 0.00 70 1015.4
20260901090304 84 126 0.9 4.3 0.00 0.00 0.00 74 1015.3
20260901085805 84 140 1.7 4.3 0.00 0.00 0.00 74 1015.2
20260901085306 84 147 1.7 6.1 0.00 0.00 0.00 75 1015.3
20260901084804 83 138 0.9 4.3 0.00 0.00 0.00 77 1015.2
20260901084305 83 150 0.0 2.6 0.00 0.00 0.00 76 1015.2
20260901083305 83 133 0.9 5.2 0.00 0.00 0.00 78 1015.1
20260901082805 83 138 0.0 4.3 0.00 0.00 0.00 77 1015.0
20260901081804 83 128 0.9 4.3 0.00 0.00 0.00 77 1015.0
20260901081305 83 123 0.0 2.6 0.00 0.00 0.00 78 1015.0
20260901080805 83 114 0.9 4.3 0.00 0.00 0.00 77 1014.9
20260901075805 83 131 0.0 4.3 0.00 0.00 0.00 77 1014.6
20260901075307 83 144 0.9 4.3 0.00 0.00 0.00 77 1014.7
20260901074805 83 138 0.9 4.3 0.00 0.00 0.00 78 1014.6
20260901074305 83 122 0.0 1.7 0.00 0.00 0.00 79 1014.7
20260901073304 82 129 0.9 2.6 0.00 0.00 0.00 81 1014.8
20260901071804 81 139 0.0 1.7 0.00 0.00 0.00 84 1014.6
20260901071305 81 91 0.0 1.7 0.00 0.00 0.00 85 1014.6
20260901070805 80 82 0.0 0.0 0.00 0.00 0.00 85 1014.5
20260901070305 80 82 0.0 1.7 0.00 0.00 0.00 86 1014.3
20260901065805 80 80 0.0 0.0 0.00 0.00 0.00 86 1014.2
20260901065305 80 80 0.0 0.0 0.00 0.00 0.00 86 1014.1
20260901064804 80 80 0.0 0.9 0.00 0.00 0.00 87 1014.0
20260901064305 80 80 0.0 1.7 0.00 0.00 0.00 87 1014.1
20260901063805 79 77 0.0 1.7 0.00 0.00 0.00 87 1014.1
20260901063304 79 75 0.0 1.7 0.00 0.00 0.00 88 1014.2
20260901062805 79 66 0.0 2.6 0.00 0.00 0.00 88 1013.7
20260901062309 78 62 0.0 0.0 0.00 0.00 0.00 88 1013.7
20260901061804 78 63 0.0 0.0 0.00 0.00 0.00 88 1013.9
20260901061304 78 49 0.0 0.0 0.00 0.00 0.00 88 1014.1
20260901060804 78 49 0.0 0.0 0.00 0.00 0.00 88 1013.9
20260901060304 78 49 0.0 0.0 0.00 0.00 0.00 89 1013.9
20260901055805 77 49 0.0 0.0 0.00 0.00 0.00 89 1013.8
20260901055306 77 49 0.0 0.0 0.00 0.00 0.00 89 1013.9
20260901054804 77 49 0.0 0.0 0.00 0.00 0.00 89 1013.9
20260901053804 77 49 0.0 0.0 0.00 0.00 0.00 89 1013.8
20260901053304 77 49 0.0 0.0 0.00 0.00 0.00 89 1013.5
20260901052805 77 47 0.0 0.0 0.00 0.00 0.00 89 1013.5
20260901052307 77 47 0.0 0.0 0.00 0.00 0.00 89 1013.5
20260901051304 77 47 0.0 0.0 0.00 0.00 0.00 89 1013.6
20260901050804 77 47 0.0 0.0 0.00 0.00 0.00 89 1013.6
20260901050304 77 48 0.0 0.0 0.00 0.00 0.00 89 1013.4
20260901045804 77 46 0.0 0.0 0.00 0.00 0.00 89 1013.4
20260901044804 77 44 0.0 0.0 0.00 0.00 0.00 90 1013.2
20260901044304 77 47 0.0 0.9 0.00 0.00 0.00 90 1013.1
20260901043804 78 47 0.0 1.7 0.00 0.00 0.00 90 1013.0
20260901043304 78 37 0.0 0.0 0.00 0.00 0.00 90 1013.2
20260901042805 78 19 0.0 0.0 0.00 0.00 0.00 90 1013.2
20260901041804 78 31 0.0 0.0 0.00 0.00 0.00 90 1013.5
20260901041305 78 31 0.0 0.0 0.00 0.00 0.00 90 1013.6
20260901040804 78 31 0.0 0.0 0.00 0.00 0.00 90 1013.6
20260901040305 78 31 0.0 0.0 0.00 0.00 0.00 90 1013.7
20260901035805 78 31 0.0 0.0 0.00 0.00 0.00 90 1013.6
20260901035305 78 31 0.0 0.0 0.00 0.00 0.00 90 1013.6
20260901034804 78 31 0.0 0.0 0.00 0.00 0.00 90 1013.6
20260901034304 78 31 0.0 0.0 0.00 0.00 0.00 90 1013.6
20260901033804 78 31 0.0 0.0 0.00 0.00 0.00 90 1013.6
20260901032804 78 31 0.0 0.0 0.00 0.00 0.00 90 1013.6
20260901032306 78 31 0.0 0.0 0.00 0.00 0.00 90 1013.7
20260901031805 78 31 0.0 0.0 0.00 0.00 0.00 89 1013.8
20260901031304 78 31 0.0 0.0 0.00 0.00 0.00 89 1013.8
20260901030805 78 31 0.0 0.0 0.00 0.00 0.00 89 1013.8
20260901030304 78 31 0.0 0.0 0.00 0.00 0.00 89 1013.8
20260901025804 78 31 0.0 0.0 0.00 0.00 0.00 89 1013.7
20260901024304 78 31 0.0 0.0 0.00 0.00 0.00 89 1013.7
20260901023804 78 31 0.0 0.0 0.00 0.00 0.00 88 1013.7
20260901023304 78 31 0.0 0.0 0.00 0.00 0.00 88 1013.8
20260901022805 78 31 0.0 0.0 0.00 0.00 0.00 88 1013.9
20260901022306 79 31 0.0 0.0 0.00 0.00 0.00 88 1013.9
20260901021804 79 31 0.0 0.0 0.00 0.00 0.00 88 1014.0
20260901021304 79 31 0.0 0.0 0.00 0.00 0.00 88 1014.0
20260901020804 79 31 0.0 0.0 0.00 0.00 0.00 88 1014.0
20260901020304 79 31 0.0 0.0 0.00 0.00 0.00 88 1014.0
20260901015804 79 31 0.0 0.0 0.00 0.00 0.00 88 1014.0
20260901015305 79 31 0.0 0.0 0.00 0.00 0.00 88 1014.0
20260901014804 79 31 0.0 0.0 0.00 0.00 0.00 88 1014.1
20260901014304 79 31 0.0 0.0 0.00 0.00 0.00 88 1014.2
20260901013804 79 31 0.0 0.0 0.00 0.00 0.00 88 1014.2
20260901012306 79 31 0.0 0.0 0.00 0.00 0.00 88 1014.3
20260901011804 79 31 0.0 0.0 0.00 0.00 0.00 88 1014.3